Theta_e
319 319 319 319 320 320 320 321 321 321 322 322 322 322 322 323 322 317 308 312 314 339 340 329 329 321 322 330 336 338 323 314 320 322 323 331 329 334 340 335 335 338 336 338 340
319 319 319 319 319 320 320 320 321 321 321 321 321 321 321 322 315 310 320 331 337 340 312 309 313 315 315 320 327 329 319 319 328 328 326 327 329 334 334 332 332 335 339 340 340
318 318 318 318 319 319 319 319 320 320 320 321 321 320 321 320 308 315 331 339 343 338 314 310 312 314 313 316 319 319 316 324 329 331 333 327 327 335 331 328 333 331 334 338 337
318 318 318 318 319 319 319 319 319 319 319 321 321 320 322 314 302 317 343 342 344 322 312 309 310 309 311 311 318 312 320 323 326 335 331 324 330 329 332 333 339 336 337 337 335
317 317 317 317 318 318 318 318 318 318 318 323 321 321 314 307 309 322 346 342 332 320 310 307 309 312 310 312 316 314 317 321 325 330 333 333 329 329 330 338 341 339 338 336 337
317 317 317 317 317 317 317 317 317 317 318 323 322 322 306 296 317 331 332 332 324 316 311 308 309 320 317 315 313 317 317 318 321 332 333 331 330 325 329 339 338 337 335 336 334
316 317 317 317 317 317 316 316 316 317 318 323 324 319 310 302 319 331 328 322 321 317 309 312 312 314 319 314 318 317 310 309 310 328 332 333 323 321 334 336 335 334 335 336 334
316 316 316 316 316 316 315 315 315 317 318 324 324 316 306 325 322 320 321 315 323 317 312 312 317 314 317 318 313 307 301 297 305 309 332 327 318 329 337 333 333 334 334 335 335
316 316 316 316 316 315 314 314 316 319 320 324 313 309 308 325 307 310 309 309 320 315 312 317 312 307 310 305 300 301 297 298 301 307 321 325 320 330 333 335 331 332 334 334 334
316 316 315 315 314 313 313 314 315 318 320 323 320 306 310 310 306 309 309 311 316 314 313 310 305 301 303 300 292 296 296 295 297 303 305 323 324 328 328 333 333 333 333 334 333
316 315 314 314 313 312 309 304 300 302 308 309 308 309 309 305 307 308 310 307 308 308 301 306 301 298 303 304 303 301 299 299 304 308 302 307 322 323 326 329 329 330 330 330 333
315 314 314 313 312 311 307 299 302 304 297 306 311 310 314 304 301 304 309 302 306 302 306 303 299 306 308 307 304 302 299 298 302 307 302 318 321 325 325 322 327 324 330 331 332
314 314 313 312 311 308 303 304 309 305 294 300 303 303 302 302 299 302 308 305 305 302 305 300 304 311 309 305 303 300 297 298 299 304 302 318 318 322 325 325 326 328 331 332 332
314 314 312 310 305 302 304 308 306 303 288 295 298 300 301 301 297 309 306 301 301 303 304 302 309 307 305 303 303 295 304 303 302 297 291 298 291 315 322 321 326 326 330 331 334
314 313 311 309 299 301 308 308 306 301 283 300 296 304 299 297 299 300 306 301 296 298 296 295 301 303 303 303 305 301 305 301 300 294 292 294 290 293 317 314 318 325 331 331 334
313 312 310 306 302 305 308 308 303 288 285 295 299 296 295 295 298 302 301 301 302 298 297 297 302 300 300 304 303 306 301 298 294 292 286 290 291 294 311 315 319 325 330 331 331
311 309 307 308 301 307 308 301 289 284 298 294 292 295 293 292 295 298 296 292 290 286 286 294 296 298 301 295 300 299 292 286 286 285 285 290 291 293 315 319 322 323 328 330 333
308 307 307 309 306 307 302 295 286 295 294 299 298 296 293 295 293 295 294 291 294 291 287 285 286 295 300 294 291 292 291 287 282 283 286 292 288 295 306 316 325 326 328 326 325
307 305 306 308 309 307 298 289 286 293 297 297 297 295 294 297 295 294 292 292 295 293 287 286 288 299 300 299 296 293 290 294 288 287 286 290 295 302 305 304 321 324 322 322 324
300 302 305 313 310 303 295 293 293 299 299 297 291 294 290 293 293 292 292 296 296 298 293 289 285 292 298 298 298 292 295 289 287 283 282 288 290 293 299 306 312 323 324 322 324
303 302 308 307 307 299 293 295 297 301 300 296 293 291 290 290 291 290 291 296 298 297 296 290 286 289 294 290 290 291 288 287 287 287 284 283 288 297 301 306 307 311 316 326 325
301 295 309 306 296 294 290 294 299 297 299 297 297 294 291 292 290 290 290 294 300 297 291 292 286 283 287 295 297 293 290 287 283 284 287 288 290 306 307 307 310 312 315 319 329
298 301 307 304 289 290 292 296 298 296 294 295 293 294 293 290 287 291 293 298 301 297 292 292 285 281 285 287 293 291 292 288 288 284 284 285 288 304 305 308 312 313 318 322 328
300 293 297 297 294 292 291 292 293 299 296 296 293 293 291 288 289 288 291 297 299 300 306 296 284 283 279 283 289 288 291 291 287 281 284 285 291 298 302 306 310 313 313 326 328
298 293 295 290 291 292 292 292 292 291 296 295 293 293 289 285 286 287 291 291 296 300 296 291 284 286 288 291 292 291 291 292 288 287 284 288 289 296 298 303 306 313 313 317 321
297 296 298 292 293 292 290 289 291 293 293 291 291 294 292 286 287 285 288 287 287 291 289 291 285 287 285 291 290 289 291 292 292 292 291 292 291 298 302 307 310 309 311 317 321
303 303 297 295 292 289 289 291 294 295 296 297 296 292 290 292 295 293 292 290 290 287 286 287 286 282 277 288 287 283 288 290 292 294 293 289 291 303 304 307 308 310 313 319 321
Wind_Speed
19 19 18 19 19 20 20 19 18 16 15 15 14 11 11 10 10 3 7 12 9 9 9 6 5 5 4 4 4 2 3 2 0 2 2 7 5 6 12 9 7 5 13 22 24
19 19 19 19 19 20 20 20 18 18 16 14 13 11 9 7 3 8 11 12 15 14 5 7 7 6 3 5 3 8 4 6 8 10 5 11 8 8 4 12 7 5 17 19 21
19 19 20 20 20 20 20 20 19 18 17 14 11 8 7 3 3 8 13 14 11 11 4 5 2 4 5 3 6 6 7 9 10 4 12 11 9 11 7 10 9 22 22 22 20
21 21 21 21 20 20 20 20 19 18 16 14 8 5 3 1 2 3 13 18 12 7 4 6 4 5 6 7 7 4 10 12 14 13 13 9 8 4 9 2 8 24 25 24 21
21 21 22 22 22 21 20 19 19 17 16 13 5 4 1 0 10 5 13 14 7 6 7 7 6 6 4 7 12 9 18 15 16 14 18 15 4 3 9 6 12 16 18 21 16
22 21 22 23 23 22 21 20 19 17 14 12 3 4 2 3 5 11 13 10 7 7 7 8 9 10 5 11 8 7 10 13 9 20 18 18 9 4 5 9 15 17 18 17 14
21 22 22 23 24 24 23 21 20 16 13 10 5 4 3 13 1 9 12 10 8 10 7 10 5 3 4 8 9 10 7 8 4 15 14 19 7 7 4 7 20 18 17 15 16
22 23 23 24 25 25 23 23 22 16 11 8 4 3 9 7 6 5 11 5 6 9 8 5 7 6 5 7 7 4 4 5 7 4 16 8 9 9 9 15 21 21 18 15 16
21 22 23 23 23 24 24 26 24 11 8 6 2 2 10 10 3 8 6 4 8 4 7 5 4 6 3 3 6 7 1 4 9 5 20 7 6 8 4 13 21 19 19 18 14
22 22 23 23 23 23 25 26 6 8 5 6 6 3 6 4 4 3 6 5 5 5 2 2 2 1 4 5 3 3 3 4 5 7 2 5 9 13 18 8 11 16 3 10 13
23 23 24 24 23 20 15 5 5 3 2 8 5 4 8 2 1 4 3 3 4 5 4 4 4 4 8 6 6 3 2 8 14 12 5 7 19 23 12 15 14 12 15 12 13
23 23 24 25 24 22 4 0 5 7 7 10 16 13 15 6 3 3 6 3 4 4 3 4 4 7 5 6 7 6 5 10 12 5 3 9 14 21 18 17 20 20 23 19 16
23 23 24 25 28 3 4 7 7 4 1 9 7 5 6 5 3 5 6 3 2 5 5 6 10 8 7 7 7 6 6 8 11 10 0 15 6 12 11 8 12 9 8 13 22
23 23 23 28 4 6 5 5 7 4 5 8 3 3 3 5 2 7 4 3 3 9 6 6 14 9 9 10 5 6 8 10 8 3 3 3 5 10 15 13 14 13 12 14 18
23 22 20 14 3 3 6 10 8 7 3 3 1 1 3 7 5 3 2 5 1 3 6 7 6 7 10 9 9 12 12 8 2 3 5 3 5 3 16 13 19 18 13 12 16
24 21 19 1 1 9 9 11 5 7 1 3 4 3 4 2 1 5 3 3 1 1 1 6 4 4 6 5 4 11 4 5 5 4 3 3 5 2 16 25 15 13 17 17 18
26 23 11 4 5 4 9 5 6 3 8 5 4 4 5 5 3 5 5 1 3 4 3 6 5 4 5 4 6 3 7 4 5 3 7 2 4 9 19 14 22 22 24 19 18
26 25 6 6 6 5 5 6 9 7 6 5 6 4 6 4 4 3 3 5 6 3 2 3 7 8 8 4 3 4 8 8 6 4 3 5 4 7 11 10 23 24 24 19 16
20 4 3 6 7 4 6 7 1 5 6 9 8 7 9 8 5 2 8 11 9 8 5 4 5 2 10 4 2 8 1 7 5 3 5 4 8 10 11 6 12 20 18 22 15
3 4 5 6 7 5 6 6 4 4 7 6 7 6 8 9 7 8 7 9 4 10 4 5 5 4 7 7 9 8 5 4 4 2 3 4 3 7 10 13 8 4 15 21 14
3 4 6 1 5 6 4 2 9 14 14 9 7 7 5 5 5 5 8 4 9 7 10 5 4 9 5 6 4 9 7 6 0 4 6 3 6 1 4 6 3 7 10 27 23
3 5 10 4 6 0 4 4 8 10 10 7 8 9 5 7 6 6 4 3 7 3 5 4 4 3 5 4 5 4 6 6 5 9 1 5 6 2 7 5 9 13 19 12 24
3 4 8 7 5 5 5 12 12 10 8 5 8 7 6 5 5 9 6 13 11 7 5 5 4 5 12 8 9 7 7 4 3 2 1 5 5 5 7 11 13 19 26 10 18
3 5 6 7 1 5 6 10 6 10 9 7 6 9 8 9 6 5 9 9 10 8 12 6 4 5 4 2 5 8 14 8 5 2 8 6 8 11 11 11 13 18 23 18 14
4 1 3 3 6 8 9 4 9 6 6 10 7 10 4 6 6 5 7 7 7 12 6 6 2 4 3 6 10 13 13 12 7 5 2 10 12 6 8 7 8 13 15 15 12
4 4 6 3 3 9 7 5 4 2 5 3 6 6 7 5 2 3 5 5 3 7 6 6 2 4 2 4 9 12 14 11 12 9 5 10 11 6 3 10 16 9 10 12 18
3 3 5 7 4 5 2 2 1 3 5 5 5 4 5 2 4 5 5 5 6 2 2 0 3 3 2 4 5 8 4 3 8 7 3 5 7 8 9 10 13 12 11 8 9
Wind_Direction
350 348 346 343 340 338 336 334 330 325 320 316 314 313 314 310 303 180 233 219 184 217 129 149 214 201 158 210 212 215 262 239 301 207 236 149 84 8 337 194 162 201 150 154 149
347 345 343 341 339 337 334 332 330 324 321 317 309 306 307 310 285 244 233 225 206 186 163 165 183 175 181 204 229 197 199 227 190 160 198 162 136 120 231 200 186 122 137 152 151
343 342 340 339 337 336 334 331 329 325 322 320 311 299 297 304 297 249 199 203 172 171 183 157 154 173 203 189 216 230 232 235 201 165 144 139 125 137 173 232 208 158 152 163 157
340 339 337 336 335 334 333 331 328 324 323 322 313 287 286 225 274 246 162 182 172 157 165 151 143 172 197 217 222 279 263 247 251 171 151 149 124 184 177 162 192 165 158 160 157
337 336 334 333 332 332 330 329 326 323 319 315 307 257 172 355 252 202 149 170 148 162 182 169 162 162 197 204 237 238 255 261 261 192 141 139 205 259 207 158 175 181 166 161 165
334 334 331 330 329 329 328 325 322 319 316 307 256 173 201 280 232 149 147 147 175 176 182 167 194 206 266 234 214 250 258 265 275 134 156 159 160 68 207 139 159 174 173 171 164
331 331 329 329 328 327 325 319 313 310 304 298 199 219 265 238 195 141 159 180 177 178 171 211 211 281 359 326 234 245 277 292 264 148 151 127 87 274 265 186 165 179 172 186 167
328 328 328 329 326 324 321 313 306 297 277 265 179 240 248 254 271 239 200 217 190 191 194 205 191 266 198 256 317 6 69 340 298 104 164 157 185 229 229 176 164 181 176 185 180
325 327 325 326 324 323 318 309 304 278 212 182 126 194 270 309 214 223 180 214 173 207 214 225 166 211 310 286 8 14 249 313 313 281 160 227 132 178 321 160 165 175 180 175 180
325 326 323 322 323 324 320 306 271 111 168 193 258 315 269 220 218 176 200 149 190 170 141 207 126 251 355 82 208 268 321 319 246 312 28 115 132 148 156 182 166 159 138 185 187
325 324 321 321 321 324 337 0 25 38 215 196 198 248 290 301 93 199 216 129 132 98 163 195 108 209 244 188 193 229 244 288 288 281 254 192 157 180 169 163 165 175 162 185 199
324 322 320 320 318 318 292 27 214 194 304 239 249 247 258 250 0 279 122 113 110 182 179 351 227 228 235 228 246 266 250 273 285 256 270 152 193 176 188 193 177 199 176 174 191
323 322 321 320 316 328 208 232 269 354 60 292 223 212 222 144 211 242 118 162 210 175 185 169 240 230 244 267 234 248 211 251 248 304 19 108 130 185 215 214 226 267 227 183 184
322 324 325 328 353 328 269 271 299 133 61 281 192 244 122 138 336 148 150 132 25 195 203 205 242 219 225 246 211 272 227 244 269 47 258 95 196 204 202 209 238 235 216 213 200
322 324 330 318 270 305 265 329 334 61 64 171 86 255 136 131 145 3 8 46 106 302 76 263 248 234 227 220 218 240 257 240 233 85 350 55 93 265 178 219 212 215 201 201 196
318 321 331 144 227 244 313 308 46 52 210 141 130 166 90 202 237 156 81 66 187 283 260 236 241 203 210 239 214 239 222 23 56 98 1 151 125 221 177 210 217 218 213 199 183
316 318 309 258 238 330 340 33 56 72 325 1 163 147 173 213 170 150 142 50 123 60 355 334 301 288 17 350 346 97 70 10 350 5 215 146 63 227 212 194 201 206 216 210 192
322 320 210 219 245 13 23 48 54 26 357 336 352 129 146 178 14 70 58 20 50 148 92 59 334 14 350 42 337 278 147 152 191 201 263 334 226 258 210 203 202 201 210 208 208
326 327 277 259 224 117 59 51 31 359 336 344 348 40 15 8 59 77 98 15 35 22 92 49 284 318 43 341 70 302 116 182 119 141 80 243 299 324 16 326 203 200 200 212 210
15 320 274 252 139 73 68 38 71 38 7 23 42 35 34 359 46 35 30 343 17 22 66 341 339 354 320 22 36 95 279 347 18 176 189 279 233 240 40 29 16 274 242 238 220
43 8 268 356 77 48 111 108 64 32 30 31 358 36 85 21 36 45 4 52 29 340 63 32 75 298 34 49 352 351 2 360 149 145 150 166 261 205 77 99 191 270 338 231 219
8 34 318 78 48 332 61 25 82 18 20 28 48 62 59 19 29 71 69 40 357 31 42 329 125 306 258 260 265 164 63 74 56 310 248 138 271 89 88 12 16 356 344 282 215
43 282 323 61 61 15 32 77 76 49 25 24 29 44 33 51 69 34 32 13 31 46 42 336 15 7 337 10 15 31 22 66 240 344 261 119 256 118 9 39 26 5 359 326 182
68 28 339 32 20 117 98 39 62 26 38 39 63 49 36 29 20 39 16 4 15 26 50 67 72 123 205 226 283 319 333 358 97 23 330 260 337 2 4 14 18 32 24 27 41
50 306 204 354 357 56 63 49 50 20 12 23 41 49 57 25 20 23 6 351 2 23 12 88 66 38 314 346 334 318 321 334 310 216 215 297 316 339 350 358 10 58 44 35 36
86 45 0 34 39 52 28 356 61 26 52 33 83 28 44 72 92 319 27 27 294 353 33 359 280 349 355 27 3 315 306 305 294 294 265 301 299 347 326 44 24 20 73 35 33
336 358 97 323 26 69 337 299 298 82 351 64 106 85 13 332 287 251 209 198 232 294 333 343 110 43 286 11 2 305 293 336 313 317 298 315 288 328 13 59 31 9 360 79 56